Time,TemperatureF,DewpointF,PressureIn,WindDirection,WindDirectionDegrees,WindSpeedMPH,WindSpeedGustMPH,Humidity,HourlyPrecipIn,Conditions,Clouds,dailyrainin,SoftwareType,DateUTC
2013-10-11 00:02:00,49.6,33.6,29.53,North,-999,-999.0,0.0,54,0.00,,,0.00,LWC V2.10 B1813,2013-10-11 06:02:00,
2013-10-11 00:07:00,49.3,33.4,29.53,North,-999,-999.0,0.0,54,0.00,,,0.00,LWC V2.10 B1813,2013-10-11 06:07:00,
2013-10-11 00:12:00,49.1,33.6,29.53,North,-999,-999.0,0.0,55,0.00,,,0.00,LWC V2.10 B1813,2013-10-11 06:12:00,
2013-10-11 00:17:00,49.0,34.0,29.53,North,-999,-999.0,0.0,56,0.00,,,0.00,LWC V2.10 B1813,2013-10-11 06:17:00,
2013-10-11 00:22:00,48.8,33.4,29.53,North,-999,-999.0,0.0,55,0.00,,,0.00,LWC V2.10 B1813,2013-10-11 06:22:00,
2013-10-11 00:27:00,48.6,33.6,29.53,North,-999,-999.0,0.0,56,0.00,,,0.00,LWC V2.10 B1813,2013-10-11 06:27:00,
2013-10-11 00:32:00,48.6,33.6,29.53,North,-999,-999.0,0.0,56,0.00,,,0.00,LWC V2.10 B1813,2013-10-11 06:32:00,
2013-10-11 00:37:00,48.6,33.6,29.53,North,-999,-999.0,0.0,56,0.00,,,0.00,LWC V2.10 B1813,2013-10-11 06:37:00,
2013-10-11 00:42:00,48.5,34.0,29.53,North,-999,-999.0,0.0,57,0.00,,,0.00,LWC V2.10 B1813,2013-10-11 06:42:00,
2013-10-11 00:47:00,48.2,34.1,29.53,North,-999,-999.0,0.0,58,0.00,,,0.00,LWC V2.10 B1813,2013-10-11 06:47:00,
2013-10-11 00:52:00,48.0,33.5,29.53,North,-999,-999.0,0.0,57,0.00,,,0.00,LWC V2.10 B1813,2013-10-11 06:52:00,
2013-10-11 00:57:00,47.9,33.8,29.53,North,-999,-999.0,0.0,58,0.00,,,0.00,LWC V2.10 B1813,2013-10-11 06:57:00,
2013-10-11 01:02:00,47.9,33.4,29.53,North,-999,-999.0,0.0,57,0.00,,,0.00,LWC V2.10 B1813,2013-10-11 07:02:00,
2013-10-11 01:07:00,47.9,33.4,29.53,North,-999,-999.0,0.0,57,0.00,,,0.00,LWC V2.10 B1813,2013-10-11 07:07:00,
2013-10-11 01:12:00,47.9,33.4,29.53,North,-999,-999.0,0.0,57,0.00,,,0.00,LWC V2.10 B1813,2013-10-11 07:12:00,
2013-10-11 01:17:00,47.8,32.9,29.53,North,-999,-999.0,0.0,56,0.00,,,0.00,LWC V2.10 B1813,2013-10-11 07:17:00,
2013-10-11 01:22:00,47.8,32.4,29.53,North,-999,-999.0,0.0,55,0.00,,,0.00,LWC V2.10 B1813,2013-10-11 07:22:00,
2013-10-11 01:27:00,47.8,32.4,29.53,North,-999,-999.0,0.0,55,0.00,,,0.00,LWC V2.10 B1813,2013-10-11 07:27:00,
2013-10-11 01:32:00,47.7,32.8,29.53,North,-999,-999.0,0.0,56,0.00,,,0.00,LWC V2.10 B1813,2013-10-11 07:32:00,
2013-10-11 01:37:00,47.7,32.8,29.53,North,-999,-999.0,0.0,56,0.00,,,0.00,LWC V2.10 B1813,2013-10-11 07:37:00,
2013-10-11 01:42:00,47.5,32.1,29.53,North,-999,-999.0,0.0,55,0.00,,,0.00,LWC V2.10 B1813,2013-10-11 07:42:00,
2013-10-11 01:47:00,47.4,32.1,29.53,North,-999,-999.0,0.0,55,0.00,,,0.00,LWC V2.10 B1813,2013-10-11 07:47:00,
2013-10-11 01:52:00,47.3,32.0,29.53,North,-999,-999.0,0.0,55,0.00,,,0.00,LWC V2.10 B1813,2013-10-11 07:52:00,
2013-10-11 01:57:00,47.1,31.8,29.53,North,-999,-999.0,0.0,55,0.00,,,0.00,LWC V2.10 B1813,2013-10-11 07:57:00,
2013-10-11 02:02:00,47.0,31.7,29.53,North,-999,-999.0,0.0,55,0.00,,,0.00,LWC V2.10 B1813,2013-10-11 08:02:00,
2013-10-11 02:07:00,46.8,31.9,29.53,North,-999,-999.0,0.0,56,0.00,,,0.00,LWC V2.10 B1813,2013-10-11 08:07:00,
2013-10-11 02:12:00,46.6,31.8,29.53,North,-999,-999.0,0.0,56,0.00,,,0.00,LWC V2.10 B1813,2013-10-11 08:12:00,
2013-10-11 02:17:00,46.5,31.7,29.53,North,-999,-999.0,0.0,56,0.00,,,0.00,LWC V2.10 B1813,2013-10-11 08:17:00,
2013-10-11 02:22:00,46.5,31.7,29.53,North,-999,-999.0,0.0,56,0.00,,,0.00,LWC V2.10 B1813,2013-10-11 08:22:00,
2013-10-11 02:27:00,46.6,31.8,29.53,North,-999,-999.0,0.0,56,0.00,,,0.00,LWC V2.10 B1813,2013-10-11 08:27:00,
2013-10-11 02:32:00,46.6,32.6,29.53,North,-999,-999.0,0.0,58,0.00,,,0.00,LWC V2.10 B1813,2013-10-11 08:32:00,
2013-10-11 02:37:00,46.5,32.1,29.53,North,-999,-999.0,0.0,57,0.00,,,0.00,LWC V2.10 B1813,2013-10-11 08:37:00,
2013-10-11 02:42:00,46.4,32.0,29.53,North,-999,-999.0,0.0,57,0.00,,,0.00,LWC V2.10 B1813,2013-10-11 08:42:00,
2013-10-11 02:47:00,46.3,32.3,29.53,North,-999,-999.0,0.0,58,0.00,,,0.00,LWC V2.10 B1813,2013-10-11 08:47:00,
2013-10-11 02:52:00,46.3,32.8,29.53,North,-999,-999.0,0.0,59,0.00,,,0.00,LWC V2.10 B1813,2013-10-11 08:52:00,
2013-10-11 02:57:00,46.1,33.0,29.53,North,-999,-999.0,0.0,60,0.00,,,0.00,LWC V2.10 B1813,2013-10-11 08:57:00,
2013-10-11 03:02:00,45.9,32.8,29.53,North,-999,-999.0,0.0,60,0.00,,,0.00,LWC V2.10 B1813,2013-10-11 09:02:00,
2013-10-11 03:07:00,45.8,33.1,29.53,North,-999,-999.0,0.0,61,0.00,,,0.00,LWC V2.10 B1813,2013-10-11 09:07:00,
2013-10-11 03:12:00,45.8,33.1,29.53,North,-999,-999.0,0.0,61,0.00,,,0.00,LWC V2.10 B1813,2013-10-11 09:12:00,
2013-10-11 03:17:00,45.7,32.6,29.53,North,-999,-999.0,0.0,60,0.00,,,0.00,LWC V2.10 B1813,2013-10-11 09:17:00,
2013-10-11 03:22:00,45.5,32.8,29.53,North,-999,-999.0,0.0,61,0.00,,,0.00,LWC V2.10 B1813,2013-10-11 09:22:00,
2013-10-11 03:27:00,45.2,33.0,29.53,North,-999,-999.0,0.0,62,0.00,,,0.00,LWC V2.10 B1813,2013-10-11 09:27:00,
2013-10-11 03:32:00,45.1,32.9,29.53,North,-999,-999.0,0.0,62,0.00,,,0.00,LWC V2.10 B1813,2013-10-11 09:32:00,
2013-10-11 03:37:00,45.1,32.9,29.53,North,-999,-999.0,0.0,62,0.00,,,0.00,LWC V2.10 B1813,2013-10-11 09:37:00,
2013-10-11 03:42:00,45.1,32.9,29.53,North,-999,-999.0,0.0,62,0.00,,,0.00,LWC V2.10 B1813,2013-10-11 09:42:00,
2013-10-11 03:47:00,44.8,32.6,29.53,North,-999,-999.0,0.0,62,0.00,,,0.00,LWC V2.10 B1813,2013-10-11 09:47:00,
2013-10-11 03:52:00,44.7,32.9,29.53,North,-999,-999.0,0.0,63,0.00,,,0.00,LWC V2.10 B1813,2013-10-11 09:52:00,
2013-10-11 03:57:00,44.6,32.8,29.53,North,-999,-999.0,0.0,63,0.00,,,0.00,LWC V2.10 B1813,2013-10-11 09:57:00,
2013-10-11 04:02:00,44.5,32.7,29.53,North,-999,-999.0,0.0,63,0.00,,,0.00,LWC V2.10 B1813,2013-10-11 10:02:00,
2013-10-11 04:07:00,44.4,32.6,29.53,North,-999,-999.0,0.0,63,0.00,,,0.00,LWC V2.10 B1813,2013-10-11 10:07:00,
2013-10-11 04:12:00,44.3,32.5,29.53,North,-999,-999.0,0.0,63,0.00,,,0.00,LWC V2.10 B1813,2013-10-11 10:12:00,
2013-10-11 04:17:00,44.1,32.3,29.53,North,-999,-999.0,0.0,63,0.00,,,0.00,LWC V2.10 B1813,2013-10-11 10:17:00,
2013-10-11 04:22:00,44.1,31.9,29.53,North,-999,-999.0,0.0,62,0.00,,,0.00,LWC V2.10 B1813,2013-10-11 10:22:00,
2013-10-11 04:27:00,44.0,32.2,29.53,North,-999,-999.0,0.0,63,0.00,,,0.00,LWC V2.10 B1813,2013-10-11 10:27:00,
2013-10-11 04:32:00,44.0,32.2,29.53,North,-999,-999.0,0.0,63,0.00,,,0.00,LWC V2.10 B1813,2013-10-11 10:32:00,
2013-10-11 04:37:00,43.8,32.4,29.53,North,-999,-999.0,0.0,64,0.00,,,0.00,LWC V2.10 B1813,2013-10-11 10:37:00,
2013-10-11 04:42:00,43.8,32.0,29.53,North,-999,-999.0,0.0,63,0.00,,,0.00,LWC V2.10 B1813,2013-10-11 10:42:00,
2013-10-11 04:47:00,43.8,32.0,29.53,North,-999,-999.0,0.0,63,0.00,,,0.00,LWC V2.10 B1813,2013-10-11 10:47:00,
2013-10-11 04:52:00,43.8,32.0,29.53,North,-999,-999.0,0.0,63,0.00,,,0.00,LWC V2.10 B1813,2013-10-11 10:52:00,
2013-10-11 04:57:00,43.7,32.3,29.53,North,-999,-999.0,0.0,64,0.00,,,0.00,LWC V2.10 B1813,2013-10-11 10:57:00,
2013-10-11 05:02:00,43.5,32.1,29.53,North,-999,-999.0,0.0,64,0.00,,,0.00,LWC V2.10 B1813,2013-10-11 11:02:00,
2013-10-11 05:07:00,43.4,32.0,29.53,North,-999,-999.0,0.0,64,0.00,,,0.00,LWC V2.10 B1813,2013-10-11 11:07:00,
2013-10-11 05:12:00,43.4,32.0,29.53,North,-999,-999.0,0.0,64,0.00,,,0.00,LWC V2.10 B1813,2013-10-11 11:12:00,
2013-10-11 05:17:00,43.4,32.0,29.53,North,-999,-999.0,0.0,64,0.00,,,0.00,LWC V2.10 B1813,2013-10-11 11:17:00,
2013-10-11 05:22:00,43.3,32.0,29.53,North,-999,-999.0,0.0,64,0.00,,,0.00,LWC V2.10 B1813,2013-10-11 11:22:00,
2013-10-11 05:27:00,43.2,32.2,29.53,North,-999,-999.0,0.0,65,0.00,,,0.00,LWC V2.10 B1813,2013-10-11 11:27:00,
2013-10-11 05:32:00,43.1,31.8,29.53,North,-999,-999.0,0.0,64,0.00,,,0.00,LWC V2.10 B1813,2013-10-11 11:32:00,
2013-10-11 05:37:00,43.0,31.7,29.53,North,-999,-999.0,0.0,64,0.00,,,0.00,LWC V2.10 B1813,2013-10-11 11:37:00,
2013-10-11 05:42:00,43.0,32.4,29.53,North,-999,-999.0,0.0,66,0.00,,,0.00,LWC V2.10 B1813,2013-10-11 11:42:00,
2013-10-11 05:47:00,42.8,31.5,29.53,North,-999,-999.0,0.0,64,0.00,,,0.00,LWC V2.10 B1813,2013-10-11 11:47:00,
2013-10-11 05:52:00,42.7,31.8,29.53,North,-999,-999.0,0.0,65,0.00,,,0.00,LWC V2.10 B1813,2013-10-11 11:52:00,
2013-10-11 05:57:00,42.8,31.9,29.53,North,-999,-999.0,0.0,65,0.00,,,0.00,LWC V2.10 B1813,2013-10-11 11:57:00,
2013-10-11 06:02:00,42.7,32.1,29.53,North,-999,-999.0,0.0,66,0.00,,,0.00,LWC V2.10 B1813,2013-10-11 12:02:00,
2013-10-11 06:07:00,42.7,31.8,29.53,North,-999,-999.0,0.0,65,0.00,,,0.00,LWC V2.10 B1813,2013-10-11 12:07:00,
2013-10-11 06:12:00,42.5,31.6,29.53,North,-999,-999.0,0.0,65,0.00,,,0.00,LWC V2.10 B1813,2013-10-11 12:12:00,
2013-10-11 06:17:00,42.4,31.9,29.53,North,-999,-999.0,0.0,66,0.00,,,0.00,LWC V2.10 B1813,2013-10-11 12:17:00,
2013-10-11 06:22:00,42.3,31.8,29.53,North,-999,-999.0,0.0,66,0.00,,,0.00,LWC V2.10 B1813,2013-10-11 12:22:00,
2013-10-11 06:27:00,42.4,31.9,29.53,North,-999,-999.0,0.0,66,0.00,,,0.00,LWC V2.10 B1813,2013-10-11 12:27:00,
2013-10-11 06:32:00,42.2,31.7,29.53,North,-999,-999.0,0.0,66,0.00,,,0.00,LWC V2.10 B1813,2013-10-11 12:32:00,
2013-10-11 06:37:00,42.2,32.0,29.53,North,-999,-999.0,0.0,67,0.00,,,0.00,LWC V2.10 B1813,2013-10-11 12:37:00,
2013-10-11 06:42:00,42.1,31.9,29.53,North,-999,-999.0,0.0,67,0.00,,,0.00,LWC V2.10 B1813,2013-10-11 12:42:00,
2013-10-11 06:47:00,42.1,31.9,29.53,North,-999,-999.0,0.0,67,0.00,,,0.00,LWC V2.10 B1813,2013-10-11 12:47:00,
2013-10-11 06:52:00,42.0,31.9,29.53,North,-999,-999.0,0.0,67,0.00,,,0.00,LWC V2.10 B1813,2013-10-11 12:52:00,
2013-10-11 06:57:00,41.9,32.1,29.53,North,-999,-999.0,0.0,68,0.00,,,0.00,LWC V2.10 B1813,2013-10-11 12:57:00,
2013-10-11 07:02:00,41.7,31.9,29.53,North,-999,-999.0,0.0,68,0.00,,,0.00,LWC V2.10 B1813,2013-10-11 13:02:00,
2013-10-11 07:07:00,41.7,31.6,29.53,North,-999,-999.0,0.0,67,0.00,,,0.00,LWC V2.10 B1813,2013-10-11 13:07:00,
2013-10-11 07:12:00,41.6,31.8,29.53,North,-999,-999.0,0.0,68,0.00,,,0.00,LWC V2.10 B1813,2013-10-11 13:12:00,
2013-10-11 07:17:00,41.6,31.8,29.53,North,-999,-999.0,0.0,68,0.00,,,0.00,LWC V2.10 B1813,2013-10-11 13:17:00,
2013-10-11 07:22:00,41.7,31.9,29.53,North,-999,-999.0,0.0,68,0.00,,,0.00,LWC V2.10 B1813,2013-10-11 13:22:00,
2013-10-11 07:27:00,41.7,31.6,29.53,North,-999,-999.0,0.0,67,0.00,,,0.00,LWC V2.10 B1813,2013-10-11 13:27:00,
2013-10-11 07:32:00,41.6,31.8,29.53,North,-999,-999.0,0.0,68,0.00,,,0.00,LWC V2.10 B1813,2013-10-11 13:32:00,
2013-10-11 07:37:00,41.7,32.3,29.53,North,-999,-999.0,0.0,69,0.00,,,0.00,LWC V2.10 B1813,2013-10-11 13:37:00,
2013-10-11 07:42:00,41.8,32.0,29.53,North,-999,-999.0,0.0,68,0.00,,,0.00,LWC V2.10 B1813,2013-10-11 13:42:00,
2013-10-11 07:47:00,41.9,32.5,29.53,North,-999,-999.0,0.0,69,0.00,,,0.00,LWC V2.10 B1813,2013-10-11 13:47:00,
2013-10-11 07:52:00,42.2,32.4,29.53,North,-999,-999.0,0.0,68,0.00,,,0.00,LWC V2.10 B1813,2013-10-11 13:52:00,
2013-10-11 07:57:00,42.8,32.6,29.53,North,-999,-999.0,0.0,67,0.00,,,0.00,LWC V2.10 B1813,2013-10-11 13:57:00,
2013-10-11 08:02:00,43.3,32.3,29.53,North,-999,-999.0,0.0,65,0.00,,,0.00,LWC V2.10 B1813,2013-10-11 14:02:00,
2013-10-11 08:07:00,43.9,32.5,29.53,North,-999,-999.0,0.0,64,0.00,,,0.00,LWC V2.10 B1813,2013-10-11 14:07:00,
2013-10-11 08:12:00,44.4,32.6,29.53,North,-999,-999.0,0.0,63,0.00,,,0.00,LWC V2.10 B1813,2013-10-11 14:12:00,
2013-10-11 08:17:00,45.0,32.8,29.53,North,-999,-999.0,0.0,62,0.00,,,0.00,LWC V2.10 B1813,2013-10-11 14:17:00,
2013-10-11 08:22:00,45.4,32.3,29.53,North,-999,-999.0,0.0,60,0.00,,,0.00,LWC V2.10 B1813,2013-10-11 14:22:00,
2013-10-11 08:27:00,45.9,32.4,29.53,North,-999,-999.0,0.0,59,0.00,,,0.00,LWC V2.10 B1813,2013-10-11 14:27:00,
2013-10-11 08:32:00,46.1,32.2,29.53,North,-999,-999.0,0.0,58,0.00,,,0.00,LWC V2.10 B1813,2013-10-11 14:32:00,
2013-10-11 08:37:00,46.5,32.1,29.53,North,-999,-999.0,0.0,57,0.00,,,0.00,LWC V2.10 B1813,2013-10-11 14:37:00,
2013-10-11 08:42:00,46.8,32.8,29.53,North,-999,-999.0,0.0,58,0.00,,,0.00,LWC V2.10 B1813,2013-10-11 14:42:00,
2013-10-11 08:47:00,47.0,32.6,29.53,North,-999,-999.0,0.0,57,0.00,,,0.00,LWC V2.10 B1813,2013-10-11 14:47:00,
2013-10-11 08:52:00,47.2,33.2,29.53,North,-999,-999.0,0.0,58,0.00,,,0.00,LWC V2.10 B1813,2013-10-11 14:52:00,
2013-10-11 08:57:00,47.3,32.4,29.53,North,-999,-999.0,0.0,56,0.00,,,0.00,LWC V2.10 B1813,2013-10-11 14:57:00,
2013-10-11 09:02:00,47.5,32.1,29.53,North,-999,-999.0,0.0,55,0.00,,,0.00,LWC V2.10 B1813,2013-10-11 15:02:00,
2013-10-11 09:07:00,47.6,32.2,29.53,North,-999,-999.0,0.0,55,0.00,,,0.00,LWC V2.10 B1813,2013-10-11 15:07:00,
2013-10-11 09:12:00,47.7,32.3,29.53,North,-999,-999.0,0.0,55,0.00,,,0.00,LWC V2.10 B1813,2013-10-11 15:12:00,
2013-10-11 09:17:00,47.8,32.4,29.53,North,-999,-999.0,0.0,55,0.00,,,0.00,LWC V2.10 B1813,2013-10-11 15:17:00,
2013-10-11 09:22:00,47.8,31.5,29.53,North,-999,-999.0,0.0,53,0.00,,,0.00,LWC V2.10 B1813,2013-10-11 15:22:00,
2013-10-11 09:27:00,47.8,32.0,29.53,North,-999,-999.0,0.0,54,0.00,,,0.00,LWC V2.10 B1813,2013-10-11 15:27:00,
2013-10-11 09:32:00,48.1,33.2,29.53,North,-999,-999.0,0.0,56,0.00,,,0.00,LWC V2.10 B1813,2013-10-11 15:32:00,
2013-10-11 09:37:00,48.4,32.5,29.53,North,-999,-999.0,0.0,54,0.00,,,0.00,LWC V2.10 B1813,2013-10-11 15:37:00,
2013-10-11 09:42:00,48.5,32.6,29.53,North,-999,-999.0,0.0,54,0.00,,,0.00,LWC V2.10 B1813,2013-10-11 15:42:00,
2013-10-11 09:47:00,48.6,33.2,29.53,North,-999,-999.0,0.0,55,0.00,,,0.00,LWC V2.10 B1813,2013-10-11 15:47:00,
2013-10-11 09:52:00,48.9,33.0,29.53,North,-999,-999.0,0.0,54,0.00,,,0.00,LWC V2.10 B1813,2013-10-11 15:52:00,
2013-10-11 09:57:00,49.0,33.1,29.53,North,-999,-999.0,0.0,54,0.00,,,0.00,LWC V2.10 B1813,2013-10-11 15:57:00,
2013-10-11 10:02:00,49.1,32.7,29.53,North,-999,-999.0,0.0,53,0.00,,,0.00,LWC V2.10 B1813,2013-10-11 16:02:00,
2013-10-11 10:07:00,49.3,32.9,29.53,North,-999,-999.0,0.0,53,0.00,,,0.00,LWC V2.10 B1813,2013-10-11 16:07:00,
2013-10-11 10:12:00,49.4,32.0,29.53,North,-999,-999.0,0.0,51,0.00,,,0.00,LWC V2.10 B1813,2013-10-11 16:12:00,
2013-10-11 10:17:00,49.5,32.6,29.53,North,-999,-999.0,0.0,52,0.00,,,0.00,LWC V2.10 B1813,2013-10-11 16:17:00,
2013-10-11 10:22:00,49.7,32.8,29.53,North,-999,-999.0,0.0,52,0.00,,,0.00,LWC V2.10 B1813,2013-10-11 16:22:00,
2013-10-11 10:27:00,49.8,32.4,29.53,North,-999,-999.0,0.0,51,0.00,,,0.00,LWC V2.10 B1813,2013-10-11 16:27:00,
2013-10-11 10:32:00,50.0,32.6,29.53,North,-999,-999.0,0.0,51,0.00,,,0.00,LWC V2.10 B1813,2013-10-11 16:32:00,
2013-10-11 10:37:00,50.1,31.7,29.53,North,-999,-999.0,0.0,49,0.00,,,0.00,LWC V2.10 B1813,2013-10-11 16:37:00,
2013-10-11 10:42:00,50.2,32.3,29.53,North,-999,-999.0,0.0,50,0.00,,,0.00,LWC V2.10 B1813,2013-10-11 16:42:00,
2013-10-11 10:47:00,50.4,32.0,29.53,North,-999,-999.0,0.0,49,0.00,,,0.00,LWC V2.10 B1813,2013-10-11 16:47:00,
2013-10-11 10:52:00,50.5,32.1,29.53,North,-999,-999.0,0.0,49,0.00,,,0.00,LWC V2.10 B1813,2013-10-11 16:52:00,
2013-10-11 10:57:00,50.7,32.2,29.53,North,-999,-999.0,0.0,49,0.00,,,0.00,LWC V2.10 B1813,2013-10-11 16:57:00,
2013-10-11 11:02:00,50.8,30.8,29.53,North,-999,-999.0,0.0,46,0.00,,,0.00,LWC V2.10 B1813,2013-10-11 17:02:00,
2013-10-11 11:07:00,51.0,32.0,29.53,North,-999,-999.0,0.0,48,0.00,,,0.00,LWC V2.10 B1813,2013-10-11 17:07:00,
2013-10-11 11:12:00,51.2,31.7,29.53,North,-999,-999.0,0.0,47,0.00,,,0.00,LWC V2.10 B1813,2013-10-11 17:12:00,
2013-10-11 11:17:00,51.4,32.4,29.53,North,-999,-999.0,0.0,48,0.00,,,0.00,LWC V2.10 B1813,2013-10-11 17:17:00,
2013-10-11 11:22:00,51.5,31.9,29.53,North,-999,-999.0,0.0,47,0.00,,,0.00,LWC V2.10 B1813,2013-10-11 17:22:00,
2013-10-11 11:27:00,51.6,32.6,29.53,North,-999,-999.0,0.0,48,0.00,,,0.00,LWC V2.10 B1813,2013-10-11 17:27:00,
2013-10-11 11:32:00,51.8,32.7,29.53,North,-999,-999.0,0.0,48,0.00,,,0.00,LWC V2.10 B1813,2013-10-11 17:32:00,
2013-10-11 11:37:00,51.9,31.8,29.53,North,-999,-999.0,0.0,46,0.00,,,0.00,LWC V2.10 B1813,2013-10-11 17:37:00,
2013-10-11 11:42:00,51.9,32.8,29.53,North,-999,-999.0,0.0,48,0.00,,,0.00,LWC V2.10 B1813,2013-10-11 17:42:00,
2013-10-11 11:47:00,52.2,32.0,29.53,North,-999,-999.0,0.0,46,0.00,,,0.00,LWC V2.10 B1813,2013-10-11 17:47:00,
2013-10-11 11:52:00,52.3,33.2,29.53,North,-999,-999.0,0.0,48,0.00,,,0.00,LWC V2.10 B1813,2013-10-11 17:52:00,
2013-10-11 11:57:00,52.4,32.2,29.53,North,-999,-999.0,0.0,46,0.00,,,0.00,LWC V2.10 B1813,2013-10-11 17:57:00,
2013-10-11 12:02:00,52.6,33.0,29.53,North,-999,-999.0,0.0,47,0.00,,,0.00,LWC V2.10 B1813,2013-10-11 18:02:00,
2013-10-11 12:07:00,52.9,33.2,29.53,North,-999,-999.0,0.0,47,0.00,,,0.00,LWC V2.10 B1813,2013-10-11 18:07:00,
2013-10-11 12:12:00,53.1,32.9,29.53,North,-999,-999.0,0.0,46,0.00,,,0.00,LWC V2.10 B1813,2013-10-11 18:12:00,
2013-10-11 12:17:00,53.3,33.6,29.53,North,-999,-999.0,0.0,47,0.00,,,0.00,LWC V2.10 B1813,2013-10-11 18:17:00,
2013-10-11 12:22:00,53.4,33.7,29.53,North,-999,-999.0,0.0,47,0.00,,,0.00,LWC V2.10 B1813,2013-10-11 18:22:00,
2013-10-11 12:27:00,53.5,33.8,29.53,North,-999,-999.0,0.0,47,0.00,,,0.00,LWC V2.10 B1813,2013-10-11 18:27:00,
2013-10-11 12:32:00,53.4,33.1,29.53,North,-999,-999.0,0.0,46,0.00,,,0.00,LWC V2.10 B1813,2013-10-11 18:32:00,
2013-10-11 12:37:00,53.4,32.6,29.53,North,-999,-999.0,0.0,45,0.00,,,0.00,LWC V2.10 B1813,2013-10-11 18:37:00,
2013-10-11 12:42:00,53.6,33.9,29.53,North,-999,-999.0,0.0,47,0.00,,,0.00,LWC V2.10 B1813,2013-10-11 18:42:00,
2013-10-11 12:47:00,53.7,33.4,29.53,North,-999,-999.0,0.0,46,0.00,,,0.00,LWC V2.10 B1813,2013-10-11 18:47:00,
2013-10-11 12:52:00,53.8,33.0,29.53,North,-999,-999.0,0.0,45,0.00,,,0.00,LWC V2.10 B1813,2013-10-11 18:52:00,
2013-10-11 12:57:00,54.2,32.8,29.53,North,-999,-999.0,0.0,44,0.00,,,0.00,LWC V2.10 B1813,2013-10-11 18:57:00,
2013-10-11 13:02:00,54.2,32.8,29.53,North,-999,-999.0,0.0,44,0.00,,,0.00,LWC V2.10 B1813,2013-10-11 19:02:00,
2013-10-11 13:07:00,54.3,33.4,29.53,North,-999,-999.0,0.0,45,0.00,,,0.00,LWC V2.10 B1813,2013-10-11 19:07:00,
2013-10-11 13:12:00,54.5,33.0,29.53,North,-999,-999.0,0.0,44,0.00,,,0.00,LWC V2.10 B1813,2013-10-11 19:12:00,
2013-10-11 13:17:00,54.7,32.1,29.53,North,-999,-999.0,0.0,42,0.00,,,0.00,LWC V2.10 B1813,2013-10-11 19:17:00,
2013-10-11 13:22:00,54.6,33.1,29.53,North,-999,-999.0,0.0,44,0.00,,,0.00,LWC V2.10 B1813,2013-10-11 19:22:00,
2013-10-11 13:27:00,54.8,33.3,29.53,North,-999,-999.0,0.0,44,0.00,,,0.00,LWC V2.10 B1813,2013-10-11 19:27:00,
2013-10-11 13:32:00,55.0,32.9,29.53,North,-999,-999.0,0.0,43,0.00,,,0.00,LWC V2.10 B1813,2013-10-11 19:32:00,
2013-10-11 13:37:00,55.2,33.1,29.53,North,-999,-999.0,0.0,43,0.00,,,0.00,LWC V2.10 B1813,2013-10-11 19:37:00,
2013-10-11 13:42:00,55.3,32.0,29.53,North,-999,-999.0,0.0,41,0.00,,,0.00,LWC V2.10 B1813,2013-10-11 19:42:00,
2013-10-11 13:47:00,55.4,32.7,29.53,North,-999,-999.0,0.0,42,0.00,,,0.00,LWC V2.10 B1813,2013-10-11 19:47:00,
2013-10-11 13:52:00,55.4,32.1,29.53,North,-999,-999.0,0.0,41,0.00,,,0.00,LWC V2.10 B1813,2013-10-11 19:52:00,
2013-10-11 13:57:00,55.5,31.6,29.53,North,-999,-999.0,0.0,40,0.00,,,0.00,LWC V2.10 B1813,2013-10-11 19:57:00,
2013-10-11 14:02:00,55.6,32.3,29.53,North,-999,-999.0,0.0,41,0.00,,,0.00,LWC V2.10 B1813,2013-10-11 20:02:00,
2013-10-11 14:07:00,55.9,32.5,29.53,North,-999,-999.0,0.0,41,0.00,,,0.00,LWC V2.10 B1813,2013-10-11 20:07:00,
2013-10-11 14:12:00,56.1,32.1,29.53,North,-999,-999.0,0.0,40,0.00,,,0.00,LWC V2.10 B1813,2013-10-11 20:12:00,
2013-10-11 14:17:00,56.3,32.3,29.53,North,-999,-999.0,0.0,40,0.00,,,0.00,LWC V2.10 B1813,2013-10-11 20:17:00,
2013-10-11 14:22:00,56.4,31.8,29.53,North,-999,-999.0,0.0,39,0.00,,,0.00,LWC V2.10 B1813,2013-10-11 20:22:00,
2013-10-11 14:27:00,56.5,32.5,29.53,North,-999,-999.0,0.0,40,0.00,,,0.00,LWC V2.10 B1813,2013-10-11 20:27:00,
2013-10-11 14:32:00,56.6,31.9,29.53,North,-999,-999.0,0.0,39,0.00,,,0.00,LWC V2.10 B1813,2013-10-11 20:32:00,
2013-10-11 14:37:00,56.6,31.9,29.53,North,-999,-999.0,0.0,39,0.00,,,0.00,LWC V2.10 B1813,2013-10-11 20:37:00,
2013-10-11 14:42:00,56.7,32.0,29.53,North,-999,-999.0,0.0,39,0.00,,,0.00,LWC V2.10 B1813,2013-10-11 20:42:00,
2013-10-11 14:47:00,56.8,31.5,29.53,North,-999,-999.0,0.0,38,0.00,,,0.00,LWC V2.10 B1813,2013-10-11 20:47:00,
2013-10-11 14:52:00,56.9,31.6,29.53,North,-999,-999.0,0.0,38,0.00,,,0.00,LWC V2.10 B1813,2013-10-11 20:52:00,
2013-10-11 14:57:00,56.9,30.2,29.53,North,-999,-999.0,0.0,36,0.00,,,0.00,LWC V2.10 B1813,2013-10-11 20:57:00,
2013-10-11 15:02:00,56.9,31.6,29.53,North,-999,-999.0,0.0,38,0.00,,,0.00,LWC V2.10 B1813,2013-10-11 21:02:00,
2013-10-11 15:07:00,57.0,31.6,29.53,North,-999,-999.0,0.0,38,0.00,,,0.00,LWC V2.10 B1813,2013-10-11 21:07:00,
2013-10-11 15:12:00,57.1,31.7,29.53,North,-999,-999.0,0.0,38,0.00,,,0.00,LWC V2.10 B1813,2013-10-11 21:12:00,
2013-10-11 15:17:00,57.3,31.9,29.53,North,-999,-999.0,0.0,38,0.00,,,0.00,LWC V2.10 B1813,2013-10-11 21:17:00,
2013-10-11 15:22:00,57.3,31.9,29.53,North,-999,-999.0,0.0,38,0.00,,,0.00,LWC V2.10 B1813,2013-10-11 21:22:00,
2013-10-11 15:27:00,57.3,32.6,29.53,North,-999,-999.0,0.0,39,0.00,,,0.00,LWC V2.10 B1813,2013-10-11 21:27:00,
2013-10-11 15:32:00,57.4,31.3,29.53,North,-999,-999.0,0.0,37,0.00,,,0.00,LWC V2.10 B1813,2013-10-11 21:32:00,
2013-10-11 15:37:00,57.5,31.4,29.53,North,-999,-999.0,0.0,37,0.00,,,0.00,LWC V2.10 B1813,2013-10-11 21:37:00,
2013-10-11 15:42:00,57.6,32.2,29.53,North,-999,-999.0,0.0,38,0.00,,,0.00,LWC V2.10 B1813,2013-10-11 21:42:00,
2013-10-11 15:47:00,57.7,31.6,29.53,North,-999,-999.0,0.0,37,0.00,,,0.00,LWC V2.10 B1813,2013-10-11 21:47:00,
2013-10-11 15:52:00,57.8,31.7,29.53,North,-999,-999.0,0.0,37,0.00,,,0.00,LWC V2.10 B1813,2013-10-11 21:52:00,
2013-10-11 15:57:00,57.8,31.0,29.53,North,-999,-999.0,0.0,36,0.00,,,0.00,LWC V2.10 B1813,2013-10-11 21:57:00,
2013-10-11 16:02:00,57.8,31.7,29.53,North,-999,-999.0,0.0,37,0.00,,,0.00,LWC V2.10 B1813,2013-10-11 22:02:00,
2013-10-11 16:07:00,57.8,31.7,29.53,North,-999,-999.0,0.0,37,0.00,,,0.00,LWC V2.10 B1813,2013-10-11 22:07:00,
2013-10-11 16:12:00,57.9,32.5,29.53,North,-999,-999.0,0.0,38,0.00,,,0.00,LWC V2.10 B1813,2013-10-11 22:12:00,
2013-10-11 16:17:00,58.0,31.9,29.53,North,-999,-999.0,0.0,37,0.00,,,0.00,LWC V2.10 B1813,2013-10-11 22:17:00,
2013-10-11 16:22:00,58.1,32.0,29.53,North,-999,-999.0,0.0,37,0.00,,,0.00,LWC V2.10 B1813,2013-10-11 22:22:00,
2013-10-11 16:27:00,58.0,32.5,29.53,North,-999,-999.0,0.0,38,0.00,,,0.00,LWC V2.10 B1813,2013-10-11 22:27:00,
2013-10-11 16:32:00,58.0,32.5,29.53,North,-999,-999.0,0.0,38,0.00,,,0.00,LWC V2.10 B1813,2013-10-11 22:32:00,
2013-10-11 16:37:00,57.9,33.1,29.53,North,-999,-999.0,0.0,39,0.00,,,0.00,LWC V2.10 B1813,2013-10-11 22:37:00,
2013-10-11 16:42:00,57.9,32.5,29.53,North,-999,-999.0,0.0,38,0.00,,,0.00,LWC V2.10 B1813,2013-10-11 22:42:00,
2013-10-11 16:47:00,57.9,32.5,29.53,North,-999,-999.0,0.0,38,0.00,,,0.00,LWC V2.10 B1813,2013-10-11 22:47:00,
2013-10-11 16:52:00,58.1,32.6,29.53,North,-999,-999.0,0.0,38,0.00,,,0.00,LWC V2.10 B1813,2013-10-11 22:52:00,
2013-10-11 16:57:00,58.4,32.9,29.53,North,-999,-999.0,0.0,38,0.00,,,0.00,LWC V2.10 B1813,2013-10-11 22:57:00,
2013-10-11 17:02:00,58.6,32.4,29.53,North,-999,-999.0,0.0,37,0.00,,,0.00,LWC V2.10 B1813,2013-10-11 23:02:00,
2013-10-11 17:07:00,58.5,32.3,29.53,North,-999,-999.0,0.0,37,0.00,,,0.00,LWC V2.10 B1813,2013-10-11 23:07:00,
2013-10-11 17:12:00,58.5,33.0,29.53,North,-999,-999.0,0.0,38,0.00,,,0.00,LWC V2.10 B1813,2013-10-11 23:12:00,
2013-10-11 17:17:00,58.4,32.9,29.53,North,-999,-999.0,0.0,38,0.00,,,0.00,LWC V2.10 B1813,2013-10-11 23:17:00,
2013-10-11 17:22:00,58.3,32.8,29.53,North,-999,-999.0,0.0,38,0.00,,,0.00,LWC V2.10 B1813,2013-10-11 23:22:00,
2013-10-11 17:27:00,58.2,32.1,29.53,North,-999,-999.0,0.0,37,0.00,,,0.00,LWC V2.10 B1813,2013-10-11 23:27:00,
2013-10-11 17:32:00,58.1,32.6,29.53,North,-999,-999.0,0.0,38,0.00,,,0.00,LWC V2.10 B1813,2013-10-11 23:32:00,
2013-10-11 17:37:00,58.0,32.5,29.53,North,-999,-999.0,0.0,38,0.00,,,0.00,LWC V2.10 B1813,2013-10-11 23:37:00,
2013-10-11 17:42:00,57.9,32.5,29.53,North,-999,-999.0,0.0,38,0.00,,,0.00,LWC V2.10 B1813,2013-10-11 23:42:00,
2013-10-11 17:47:00,57.8,32.4,29.53,North,-999,-999.0,0.0,38,0.00,,,0.00,LWC V2.10 B1813,2013-10-11 23:47:00,
2013-10-11 17:52:00,57.7,32.3,29.53,North,-999,-999.0,0.0,38,0.00,,,0.00,LWC V2.10 B1813,2013-10-11 23:52:00,
2013-10-11 17:57:00,57.5,32.1,29.53,North,-999,-999.0,0.0,38,0.00,,,0.00,LWC V2.10 B1813,2013-10-11 23:57:00,
2013-10-11 18:02:00,57.4,32.0,29.53,North,-999,-999.0,0.0,38,0.00,,,0.00,LWC V2.10 B1813,2013-10-12 00:02:00,
2013-10-11 18:07:00,57.3,31.9,29.53,North,-999,-999.0,0.0,38,0.00,,,0.00,LWC V2.10 B1813,2013-10-12 00:07:00,
2013-10-11 18:12:00,57.1,32.4,29.53,North,-999,-999.0,0.0,39,0.00,,,0.00,LWC V2.10 B1813,2013-10-12 00:12:00,
2013-10-11 18:17:00,57.0,32.3,29.53,North,-999,-999.0,0.0,39,0.00,,,0.00,LWC V2.10 B1813,2013-10-12 00:17:00,
2013-10-11 18:22:00,56.8,31.5,29.53,North,-999,-999.0,0.0,38,0.00,,,0.00,LWC V2.10 B1813,2013-10-12 00:22:00,
2013-10-11 18:27:00,56.7,32.0,29.53,North,-999,-999.0,0.0,39,0.00,,,0.00,LWC V2.10 B1813,2013-10-12 00:27:00,
2013-10-11 18:32:00,56.5,31.8,29.53,North,-999,-999.0,0.0,39,0.00,,,0.00,LWC V2.10 B1813,2013-10-12 00:32:00,
2013-10-11 18:37:00,56.4,31.1,29.53,North,-999,-999.0,0.0,38,0.00,,,0.00,LWC V2.10 B1813,2013-10-12 00:37:00,
2013-10-11 18:42:00,56.3,31.7,29.53,North,-999,-999.0,0.0,39,0.00,,,0.00,LWC V2.10 B1813,2013-10-12 00:42:00,
2013-10-11 18:47:00,56.2,30.9,29.53,North,-999,-999.0,0.0,38,0.00,,,0.00,LWC V2.10 B1813,2013-10-12 00:47:00,
2013-10-11 18:52:00,56.0,31.4,29.53,North,-999,-999.0,0.0,39,0.00,,,0.00,LWC V2.10 B1813,2013-10-12 00:52:00,
2013-10-11 18:57:00,55.8,31.8,29.53,North,-999,-999.0,0.0,40,0.00,,,0.00,LWC V2.10 B1813,2013-10-12 00:57:00,
2013-10-11 19:02:00,55.7,31.8,29.53,North,-999,-999.0,0.0,40,0.00,,,0.00,LWC V2.10 B1813,2013-10-12 01:02:00,
2013-10-11 19:07:00,55.6,32.3,29.53,North,-999,-999.0,0.0,41,0.00,,,0.00,LWC V2.10 B1813,2013-10-12 01:07:00,
2013-10-11 19:12:00,55.4,32.1,29.53,North,-999,-999.0,0.0,41,0.00,,,0.00,LWC V2.10 B1813,2013-10-12 01:12:00,
2013-10-11 19:17:00,55.3,32.6,29.53,North,-999,-999.0,0.0,42,0.00,,,0.00,LWC V2.10 B1813,2013-10-12 01:17:00,
2013-10-11 19:22:00,55.2,32.5,29.53,North,-999,-999.0,0.0,42,0.00,,,0.00,LWC V2.10 B1813,2013-10-12 01:22:00,
2013-10-11 19:27:00,55.1,32.4,29.53,North,-999,-999.0,0.0,42,0.00,,,0.00,LWC V2.10 B1813,2013-10-12 01:27:00,
2013-10-11 19:32:00,55.1,32.4,29.53,North,-999,-999.0,0.0,42,0.00,,,0.00,LWC V2.10 B1813,2013-10-12 01:32:00,
2013-10-11 19:37:00,55.0,32.9,29.53,North,-999,-999.0,0.0,43,0.00,,,0.00,LWC V2.10 B1813,2013-10-12 01:37:00,
2013-10-11 19:42:00,54.9,32.8,29.53,North,-999,-999.0,0.0,43,0.00,,,0.00,LWC V2.10 B1813,2013-10-12 01:42:00,
2013-10-11 19:47:00,54.8,32.7,29.53,North,-999,-999.0,0.0,43,0.00,,,0.00,LWC V2.10 B1813,2013-10-12 01:47:00,
2013-10-11 19:52:00,54.7,32.6,29.53,North,-999,-999.0,0.0,43,0.00,,,0.00,LWC V2.10 B1813,2013-10-12 01:52:00,
2013-10-11 19:57:00,54.6,32.6,29.53,North,-999,-999.0,0.0,43,0.00,,,0.00,LWC V2.10 B1813,2013-10-12 01:57:00,
2013-10-11 20:02:00,54.5,33.0,29.53,North,-999,-999.0,0.0,44,0.00,,,0.00,LWC V2.10 B1813,2013-10-12 02:02:00,
2013-10-11 20:07:00,54.4,32.9,29.53,North,-999,-999.0,0.0,44,0.00,,,0.00,LWC V2.10 B1813,2013-10-12 02:07:00,
2013-10-11 20:13:00,54.3,32.9,29.53,North,-999,-999.0,0.0,44,0.00,,,0.00,LWC V2.10 B1813,2013-10-12 02:13:00,
2013-10-11 20:18:00,54.2,32.8,29.53,North,-999,-999.0,0.0,44,0.00,,,0.00,LWC V2.10 B1813,2013-10-12 02:18:00,
2013-10-11 20:23:00,54.2,33.3,29.53,North,-999,-999.0,0.0,45,0.00,,,0.00,LWC V2.10 B1813,2013-10-12 02:23:00,
2013-10-11 20:28:00,54.0,32.6,29.53,North,-999,-999.0,0.0,44,0.00,,,0.00,LWC V2.10 B1813,2013-10-12 02:28:00,
2013-10-11 20:33:00,54.0,32.6,29.53,North,-999,-999.0,0.0,44,0.00,,,0.00,LWC V2.10 B1813,2013-10-12 02:33:00,
2013-10-11 20:38:00,53.9,33.1,29.53,North,-999,-999.0,0.0,45,0.00,,,0.00,LWC V2.10 B1813,2013-10-12 02:38:00,
2013-10-11 20:43:00,53.8,33.0,29.53,North,-999,-999.0,0.0,45,0.00,,,0.00,LWC V2.10 B1813,2013-10-12 02:43:00,
2013-10-11 20:48:00,53.7,32.3,29.53,North,-999,-999.0,0.0,44,0.00,,,0.00,LWC V2.10 B1813,2013-10-12 02:48:00,
2013-10-11 20:53:00,53.7,32.9,29.53,North,-999,-999.0,0.0,45,0.00,,,0.00,LWC V2.10 B1813,2013-10-12 02:53:00,
2013-10-11 20:58:00,53.7,33.4,29.53,North,-999,-999.0,0.0,46,0.00,,,0.00,LWC V2.10 B1813,2013-10-12 02:58:00,
2013-10-11 21:03:00,53.5,33.2,29.53,North,-999,-999.0,0.0,46,0.00,,,0.00,LWC V2.10 B1813,2013-10-12 03:03:00,
2013-10-11 21:08:00,53.4,33.7,29.53,North,-999,-999.0,0.0,47,0.00,,,0.00,LWC V2.10 B1813,2013-10-12 03:08:00,
2013-10-11 21:13:00,53.3,33.1,29.53,North,-999,-999.0,0.0,46,0.00,,,0.00,LWC V2.10 B1813,2013-10-12 03:13:00,
2013-10-11 21:18:00,53.3,33.1,29.53,North,-999,-999.0,0.0,46,0.00,,,0.00,LWC V2.10 B1813,2013-10-12 03:18:00,
2013-10-11 21:23:00,53.2,33.0,29.53,North,-999,-999.0,0.0,46,0.00,,,0.00,LWC V2.10 B1813,2013-10-12 03:23:00,
2013-10-11 21:28:00,53.2,33.0,29.53,North,-999,-999.0,0.0,46,0.00,,,0.00,LWC V2.10 B1813,2013-10-12 03:28:00,
2013-10-11 21:33:00,53.1,33.4,29.53,North,-999,-999.0,0.0,47,0.00,,,0.00,LWC V2.10 B1813,2013-10-12 03:33:00,
2013-10-11 21:38:00,53.1,33.4,29.53,North,-999,-999.0,0.0,47,0.00,,,0.00,LWC V2.10 B1813,2013-10-12 03:38:00,
2013-10-11 21:43:00,53.0,33.8,29.53,North,-999,-999.0,0.0,48,0.00,,,0.00,LWC V2.10 B1813,2013-10-12 03:43:00,
2013-10-11 21:48:00,52.9,34.3,29.53,North,-999,-999.0,0.0,49,0.00,,,0.00,LWC V2.10 B1813,2013-10-12 03:48:00,
2013-10-11 21:53:00,52.8,34.7,29.53,North,-999,-999.0,0.0,50,0.00,,,0.00,LWC V2.10 B1813,2013-10-12 03:53:00,
2013-10-11 21:58:00,52.8,34.7,29.53,North,-999,-999.0,0.0,50,0.00,,,0.00,LWC V2.10 B1813,2013-10-12 03:58:00,
2013-10-11 22:01:00,52.7,34.1,29.53,North,-999,-999.0,0.0,49,0.00,,,0.00,LWC V2.10 B1813,2013-10-12 04:01:00,
2013-10-11 22:06:00,52.7,34.6,29.53,North,-999,-999.0,0.0,50,0.00,,,0.00,LWC V2.10 B1813,2013-10-12 04:06:00,
2013-10-11 22:11:00,52.6,35.0,29.53,North,-999,-999.0,0.0,51,0.00,,,0.00,LWC V2.10 B1813,2013-10-12 04:11:00,
2013-10-11 22:16:00,52.5,34.9,29.53,North,-999,-999.0,0.0,51,0.00,,,0.00,LWC V2.10 B1813,2013-10-12 04:16:00,
2013-10-11 22:21:00,52.4,35.3,29.53,North,-999,-999.0,0.0,52,0.00,,,0.00,LWC V2.10 B1813,2013-10-12 04:21:00,
2013-10-11 22:26:00,52.3,35.7,29.53,North,-999,-999.0,0.0,53,0.00,,,0.00,LWC V2.10 B1813,2013-10-12 04:26:00,
2013-10-11 22:31:00,52.2,35.6,29.53,North,-999,-999.0,0.0,53,0.00,,,0.00,LWC V2.10 B1813,2013-10-12 04:31:00,
2013-10-11 22:36:00,52.1,35.0,29.53,North,-999,-999.0,0.0,52,0.00,,,0.00,LWC V2.10 B1813,2013-10-12 04:36:00,
2013-10-11 22:41:00,52.1,36.0,29.53,North,-999,-999.0,0.0,54,0.00,,,0.00,LWC V2.10 B1813,2013-10-12 04:41:00,
2013-10-11 22:46:00,52.0,35.9,29.53,North,-999,-999.0,0.0,54,0.00,,,0.00,LWC V2.10 B1813,2013-10-12 04:46:00,
2013-10-11 22:51:00,51.9,35.8,29.53,North,-999,-999.0,0.0,54,0.00,,,0.00,LWC V2.10 B1813,2013-10-12 04:51:00,
2013-10-11 22:56:00,51.8,36.2,29.53,North,-999,-999.0,0.0,55,0.00,,,0.00,LWC V2.10 B1813,2013-10-12 04:56:00,
2013-10-11 23:01:00,51.7,36.1,29.53,North,-999,-999.0,0.0,55,0.00,,,0.00,LWC V2.10 B1813,2013-10-12 05:01:00,
2013-10-11 23:06:00,51.6,36.0,29.53,North,-999,-999.0,0.0,55,0.00,,,0.00,LWC V2.10 B1813,2013-10-12 05:06:00,
2013-10-11 23:11:00,51.4,35.8,29.53,North,-999,-999.0,0.0,55,0.00,,,0.00,LWC V2.10 B1813,2013-10-12 05:11:00,
2013-10-11 23:16:00,51.4,35.8,29.53,North,-999,-999.0,0.0,55,0.00,,,0.00,LWC V2.10 B1813,2013-10-12 05:16:00,
2013-10-11 23:21:00,51.3,35.7,29.53,North,-999,-999.0,0.0,55,0.00,,,0.00,LWC V2.10 B1813,2013-10-12 05:21:00,
2013-10-11 23:26:00,51.3,36.1,29.53,North,-999,-999.0,0.0,56,0.00,,,0.00,LWC V2.10 B1813,2013-10-12 05:26:00,
2013-10-11 23:31:00,51.2,36.0,29.53,North,-999,-999.0,0.0,56,0.00,,,0.00,LWC V2.10 B1813,2013-10-12 05:31:00,
2013-10-11 23:36:00,51.1,36.0,29.53,North,-999,-999.0,0.0,56,0.00,,,0.00,LWC V2.10 B1813,2013-10-12 05:36:00,
2013-10-11 23:41:00,51.0,36.3,29.53,North,-999,-999.0,0.0,57,0.00,,,0.00,LWC V2.10 B1813,2013-10-12 05:41:00,
2013-10-11 23:46:00,51.0,35.9,29.53,North,-999,-999.0,0.0,56,0.00,,,0.00,LWC V2.10 B1813,2013-10-12 05:46:00,
2013-10-11 23:51:00,50.8,36.1,29.53,North,-999,-999.0,0.0,57,0.00,,,0.00,LWC V2.10 B1813,2013-10-12 05:51:00,
2013-10-11 23:56:00,50.7,36.0,29.53,North,-999,-999.0,0.0,57,0.00,,,0.00,LWC V2.10 B1813,2013-10-12 05:56:00,